Location: Glion
(46.4330°N, 6.9246°E)
Time: 11:38:21
(UTC+00:00)

SL-4 R/B - Pass Details

Date: 03 March 2021
Orbit: 428 x 663 km, 51.6° (Epoch: 23 April)

Event Time Altitude Azimuth Distance (km) Brightness Sun altitude
Rises 19:50:21 0° 296° (WNW) 2,451 6.7 -26.1°
Reaches altitude 10° 19:52:30 10° 297° (WNW) 1,555 5.3 -26.5°
Enters shadow 19:54:16 27° 297° (WNW) 861 3.6 -26.8°
